Weather History for KGCD - March, 2013

Change the Weather History Date:

Sunday, March 3, 2013

  Actual Average (KBNO) Record (KBNO)
Temperature  
Mean Temperature 36 °F 34 °F  
Max Temperature 43 °F 45 °F 64 °F (1968)
Min Temperature 28 °F 23 °F 4 °F (2001)
Degree Days  
Heating Degree Days 29 31  
Month to date heating degree days 95  
Since 1 July heating degree days 5623  
Cooling Degree Days 0 0  
Month to date cooling degree days 0  
Year to date cooling degree days 0  
Moisture  
Dew Point 22 °F    
Average Humidity 58    
Maximum Humidity 94    
Minimum Humidity 27    
Precipitation  
Precipitation 0.01 in 0.04 in 0.50 in (1983)
Year to date precipitation 2.33  
Sea Level Pressure  
Sea Level Pressure 30.09 in    
Wind  
Wind Speed 7 mph (WNW)    
Max Wind Speed 17 mph    
Max Gust Speed 24 mph    
Visibility 10 miles    
Events Fog , Rain    
T = Trace of Precipitation, MM = Missing Value Source: NWS Daily Summary

Daily Weather History Graph

Daily Weather History Graph

Search for Another Location

Airport or City:

Trip Planner

Search our weather history database for the weather conditions in past years. The results will help you decide how hot, cold, wet, or windy it might be!

Date:

Astronomy

Mar. 03, 2013 Rise Set
Actual Time 6:29 AM PST 5:46 PM PST
Civil Twilight 5:59 AM PST 6:16 PM PST
Nautical Twilight 5:26 AM PST 6:49 PM PST
Astronomical Twilight 4:52 AM PST 7:23 PM PST
Moon No Moon Rise 9:32 AM PST (3/3)
Length of Visible Light 12h 16m
Length of Day
11h 17m
Waning Gibbous, 62% of the Moon is Illuminated
Mar 3
Waning Gibbous
Mar 4
Last Quarter
Mar 11
New
Mar 19
First Quarter
Mar 27
Full

Hourly Weather History & Observations

Time (PST) Temp. Windchill Dew Point Humidity Pressure Visibility Wind Dir Wind Speed Gust Speed Precip Events Conditions
12:15 AM 41.9 °F 39.0 °F 37.0 °F 83% 30.05 in 10.0 mi SSW 4.6 mph - N/A   Overcast
12:35 AM 41.2 °F 36.6 °F 37.0 °F 85% 30.05 in 10.0 mi NW 6.9 mph - N/A   Overcast
12:55 AM 40.5 °F - 37.8 °F 90% 30.05 in 10.0 mi Calm Calm - N/A   Overcast
1:15 AM 40.6 °F - 37.2 °F 88% 30.05 in 10.0 mi Calm Calm - N/A   Mostly Cloudy
1:35 AM 39.2 °F 35.9 °F 36.7 °F 91% 30.05 in 10.0 mi West 4.6 mph - N/A   Scattered Clouds
1:55 AM 38.8 °F 35.4 °F 37.0 °F 93% 30.05 in 10.0 mi WSW 4.6 mph - N/A   Mostly Cloudy
2:15 AM 39.6 °F 36.3 °F 37.4 °F 92% 30.05 in 10.0 mi WSW 4.6 mph - N/A   Overcast
2:35 AM 40.1 °F - 37.6 °F 91% 30.05 in 10.0 mi Calm Calm - N/A Rain Light Rain
2:55 AM 40.1 °F 36.9 °F 37.8 °F 91% 30.04 in 10.0 mi West 4.6 mph - 0.01 in   Drizzle
3:15 AM 39.6 °F 33.5 °F 37.9 °F 94% 30.04 in 7.0 mi West 9.2 mph - N/A Rain Light Rain
3:35 AM 39.7 °F 33.7 °F 37.4 °F 91% 30.04 in 10.0 mi WSW 9.2 mph - N/A   Overcast
3:55 AM 39.6 °F 33.5 °F 37.0 °F 91% 30.05 in 10.0 mi West 9.2 mph - N/A   Overcast
4:15 AM 39.2 °F 33.6 °F 37.6 °F 94% 30.06 in 0.2 mi WNW 8.1 mph - N/A Fog Fog
4:35 AM 37.9 °F 30.0 °F 34.0 °F 86% 30.07 in 10.0 mi NW 12.7 mph - N/A   Overcast
4:55 AM 36.1 °F 26.2 °F 31.8 °F 84% 30.08 in 10.0 mi NNW 17.3 mph 24.2 mph N/A   Overcast
5:15 AM 35.8 °F 27.3 °F 30.9 °F 82% 30.09 in 10.0 mi WNW 12.7 mph 20.7 mph N/A   Overcast
5:35 AM 35.8 °F 27.3 °F 31.5 °F 84% 30.10 in 10.0 mi WNW 12.7 mph - N/A   Overcast
5:55 AM 35.6 °F 27.5 °F 30.9 °F 83% 30.10 in 10.0 mi West 11.5 mph - N/A   Overcast
6:15 AM 34.7 °F 28.1 °F 30.4 °F 84% 30.10 in 10.0 mi West 8.1 mph - N/A   Overcast
6:35 AM 34.7 °F 27.5 °F 30.2 °F 84% 30.10 in 10.0 mi West 9.2 mph - N/A   Overcast
6:55 AM 34.3 °F 30.2 °F 29.1 °F 81% 30.10 in 10.0 mi NW 4.6 mph - N/A   Overcast
7:15 AM 34.3 °F 28.4 °F 26.8 °F 74% 30.11 in 10.0 mi WNW 6.9 mph - N/A   Overcast
7:35 AM 33.8 °F 25.8 °F 27.1 °F 77% 30.11 in 10.0 mi West 10.4 mph - N/A   Scattered Clouds
7:55 AM 32.9 °F 25.3 °F 25.5 °F 74% 30.12 in 10.0 mi West 9.2 mph - N/A   Clear
8:15 AM 33.3 °F 26.4 °F 25.9 °F 74% 30.13 in 10.0 mi WNW 8.1 mph - N/A   Scattered Clouds
8:35 AM 35.2 °F 28.1 °F 20.1 °F 54% 30.12 in 10.0 mi WNW 9.2 mph - N/A   Clear
8:55 AM 36.0 °F 28.5 °F 21.7 °F 56% 30.12 in 10.0 mi WNW 10.4 mph 17.3 mph N/A   Clear
9:15 AM 36.1 °F 27.3 °F 21.6 °F 56% 30.12 in 10.0 mi West 13.8 mph - N/A   Clear
9:35 AM 36.5 °F 29.2 °F 23.2 °F 59% 30.12 in 10.0 mi West 10.4 mph 16.1 mph N/A   Clear
9:55 AM 37.0 °F 28.9 °F 23.2 °F 57% 30.11 in 10.0 mi West 12.7 mph - N/A   Clear
10:15 AM 37.4 °F 29.3 °F 20.1 °F 50% 30.11 in 10.0 mi West 12.7 mph - N/A   Clear
10:35 AM 38.1 °F 30.7 °F 19.2 °F 47% 30.11 in 10.0 mi West 11.5 mph 18.4 mph N/A   Clear
10:55 AM 38.7 °F 30.9 °F 19.2 °F 46% 30.11 in 10.0 mi West 12.7 mph 16.1 mph N/A   Clear
11:15 AM 39.4 °F 31.8 °F 18.7 °F 43% 30.10 in 10.0 mi West 12.7 mph 17.3 mph N/A   Clear
11:35 AM 40.3 °F 32.2 °F 18.7 °F 42% 30.10 in 10.0 mi West 15.0 mph 19.6 mph N/A   Clear
11:55 AM 40.5 °F 32.8 °F 19.4 °F 43% 30.10 in 10.0 mi WSW 13.8 mph 18.4 mph N/A   Clear
12:15 PM 41.5 °F 35.0 °F 19.0 °F 41% 30.09 in 10.0 mi WSW 11.5 mph - N/A   Clear
12:35 PM 41.9 °F 34.3 °F 17.4 °F 37% 30.08 in 10.0 mi West 15.0 mph - N/A   Clear
12:55 PM 42.6 °F 36.3 °F 16.3 °F 35% 30.07 in 10.0 mi West 11.5 mph 19.6 mph N/A   Clear
1:15 PM 42.4 °F 37.5 °F 13.5 °F 31% 30.07 in 10.0 mi West 8.1 mph 16.1 mph N/A   Clear
1:35 PM 42.8 °F 36.2 °F 14.9 °F 32% 30.07 in 10.0 mi West 12.7 mph 20.7 mph N/A   Clear
2:15 PM 43.5 °F 36.7 °F 14.2 °F 31% 30.06 in 10.0 mi West 13.8 mph - N/A   Clear
2:35 PM 43.7 °F 36.9 °F 13.5 °F 29% 30.07 in 10.0 mi WNW 13.8 mph 18.4 mph N/A   Scattered Clouds
2:55 PM 43.2 °F 36.6 °F 12.7 °F 29% 30.07 in 10.0 mi WNW 12.7 mph 20.7 mph N/A   Clear
3:15 PM 43.5 °F 37.9 °F 11.5 °F 27% 30.07 in 10.0 mi NNW 10.4 mph 17.3 mph N/A   Clear
3:35 PM 42.6 °F 36.3 °F 11.3 °F 28% 30.08 in 10.0 mi NW 11.5 mph 16.1 mph N/A   Clear
3:55 PM 42.8 °F 36.2 °F 14.0 °F 31% 30.08 in 10.0 mi North 12.7 mph 16.1 mph N/A   Clear
4:35 PM 40.6 °F 33.8 °F 13.5 °F 33% 30.08 in 10.0 mi North 11.5 mph - N/A   Clear
4:55 PM 40.3 °F 34.9 °F 13.6 °F 34% 30.09 in 10.0 mi NW 8.1 mph - N/A   Clear
5:15 PM 39.0 °F 32.8 °F 13.3 °F 35% 30.09 in 10.0 mi North 9.2 mph - N/A   Clear
5:35 PM 37.6 °F 31.0 °F 12.7 °F 36% 30.09 in 10.0 mi NNW 9.2 mph - N/A   Clear
5:55 PM 36.0 °F 29.6 °F 11.8 °F 37% 30.09 in 10.0 mi NNW 8.1 mph - N/A   Clear
6:15 PM 33.3 °F 27.9 °F 11.3 °F 40% 30.10 in 10.0 mi North 5.8 mph - N/A   Clear
6:35 PM 33.4 °F 27.3 °F 11.7 °F 41% 30.10 in 10.0 mi North 6.9 mph - N/A   Clear
6:55 PM 33.1 °F 27.7 °F 11.3 °F 40% 30.10 in 10.0 mi North 5.8 mph - N/A   Clear
7:15 PM 33.1 °F 30.0 °F 11.5 °F 41% 30.10 in 10.0 mi NE 3.5 mph - N/A   Clear
7:35 PM 33.8 °F - 11.7 °F 40% 30.11 in 10.0 mi Calm Calm - N/A   Clear
7:55 PM 32.0 °F 27.5 °F 12.0 °F 44% 30.12 in 10.0 mi NNE 4.6 mph - N/A   Clear
8:15 PM 32.0 °F 28.7 °F 11.8 °F 43% 30.12 in 10.0 mi NNE 3.5 mph - N/A   Clear
8:35 PM 32.0 °F - 11.5 °F 43% 30.12 in 10.0 mi Calm Calm - N/A   Clear
8:55 PM 32.9 °F - 11.5 °F 41% 30.12 in 10.0 mi Calm Calm - N/A   Clear
9:15 PM 32.9 °F - 11.5 °F 41% 30.13 in 10.0 mi Calm Calm - N/A   Clear
9:35 PM 31.8 °F - 12.6 °F 45% 30.14 in 10.0 mi Calm Calm - N/A   Clear
9:55 PM 31.1 °F 27.7 °F 12.9 °F 47% 30.14 in 10.0 mi WSW 3.5 mph - N/A   Clear
10:15 PM 31.1 °F - 13.5 °F 48% 30.15 in 10.0 mi Calm Calm - N/A   Clear
10:35 PM 29.8 °F - 14.2 °F 52% 30.15 in 10.0 mi Calm Calm - N/A   Clear
10:55 PM 31.8 °F - 15.6 °F 51% 30.15 in 10.0 mi Calm Calm - N/A   Clear
11:15 PM 32.0 °F - 16.0 °F 52% 30.15 in 10.0 mi Calm Calm - N/A   Clear
11:55 PM 28.4 °F - 17.1 °F 63% 30.16 in 10.0 mi Calm Calm - N/A   Clear